EW3148 Weather Reports


Display with metric or nautical units.
time (UTC)temp
F
wind
direction
speed
MPH
gust
MPH
rain 1hr
in
rain 24hr
in
rain mn
in
humidity
%
barometer
mb
20240304121848 65 160 2.0 6.0 0.00 0.00 0.00 75 1009.4
20240304120848 66 180 2.0 6.0 0.00 0.00 0.00 75 1009.3
20240304115814 66 127 2.0 8.0 0.00 0.00 0.00 74 1009.1
20240304114748 66 153 2.0 8.0 0.00 0.00 0.00 74 1009.1
20240304113713 66 161 2.0 6.0 0.00 0.00 0.00 74 1009.1
20240304112646 66 143 1.0 7.0 0.00 0.00 0.00 74 1009.0
20240304111700 66 127 3.0 7.0 0.00 0.00 0.00 73 1009.0
20240304104414 66 148 3.0 9.0 0.00 0.00 0.00 73 1008.7
20240304103354 66 190 4.0 15.0 0.00 0.00 0.00 73 1008.4
20240304102403 66 161 5.0 15.0 0.00 0.00 0.00 73 1008.4
20240304101417 66 125 4.0 11.0 0.00 0.00 0.00 73 1008.3
20240304100439 66 140 3.0 14.0 0.00 0.00 0.00 73 1008.3
20240304095501 66 194 4.0 14.0 0.00 0.00 0.00 73 1008.3
20240304094526 66 160 4.0 13.0 0.00 0.00 0.00 73 1008.2
20240304092348 67 176 4.0 15.0 0.00 0.00 0.00 73 1008.2
20240304091351 67 153 4.0 15.0 0.00 0.00 0.00 73 1008.3
20240304090358 67 189 3.0 10.0 0.00 0.00 0.00 73 1008.2
20240304085357 67 139 5.0 10.0 0.00 0.00 0.00 73 1008.3
20240304084335 67 183 5.0 10.0 0.00 0.00 0.00 73 1008.4
20240304083358 67 144 5.0 18.0 0.00 0.00 0.00 72 1008.6
20240304082422 67 124 6.0 18.0 0.00 0.00 0.00 72 1008.4
20240304081445 67 144 6.0 15.0 0.00 0.00 0.00 72 1008.6
20240304080505 67 145 6.0 12.0 0.00 0.00 0.00 72 1008.7
20240304065516 67 145 4.0 10.0 0.00 0.00 0.00 74 1009.4
20240304064508 67 131 4.0 13.0 0.00 0.00 0.00 74 1009.3
20240304063518 67 89 4.0 13.0 0.00 0.00 0.00 75 1009.3
20240304062541 67 199 4.0 16.0 0.00 0.00 0.00 76 1009.3
20240304061546 67 126 7.0 17.0 0.00 0.00 0.00 76 1009.3
20240304060549 67 171 7.0 17.0 0.00 0.00 0.00 76 1009.3
20240304055602 67 192 6.0 15.0 0.00 0.00 0.00 76 1009.3
20240304054543 67 115 7.0 15.0 0.00 0.00 0.00 76 1009.4
20240304053537 67 153 4.0 12.0 0.00 0.00 0.00 76 1009.4
20240304052526 67 153 5.0 13.0 0.00 0.00 0.00 76 1009.5
20240304051546 67 163 5.0 13.0 0.00 0.00 0.00 76 1009.5
20240304040800 67 110 4.0 10.0 0.00 0.00 0.00 70 1009.7
20240304035824 68 101 3.0 11.0 0.00 0.00 0.00 70 1009.8
20240304034801 68 134 4.0 11.0 0.00 0.00 0.00 69 1009.8
20240304033814 68 150 4.0 10.0 0.00 0.00 0.00 69 1009.9
20240304032819 68 148 4.0 12.0 0.00 0.00 0.00 69 1010.0
20240304031823 68 162 3.0 12.0 0.00 0.00 0.00 69 1009.9
20240304030813 68 146 3.0 11.0 0.00 0.00 0.00 68 1009.9
20240304025756 68 187 1.0 6.0 0.00 0.00 0.00 69 1009.8
20240304024735 68 164 1.0 6.0 0.00 0.00 0.00 68 1009.8
20240304023706 69 112 1.0 5.0 0.00 0.00 0.00 68 1009.8
20240304022709 69 148 1.0 4.0 0.00 0.00 0.00 68 1009.7
20240304021713 69 105 1.0 7.0 0.00 0.00 0.00 68 1009.6
20240304020652 69 123 2.0 8.0 0.00 0.00 0.00 67 1009.3
20240304015656 69 181 1.0 8.0 0.00 0.00 0.00 67 1009.2
20240304014645 69 128 1.0 5.0 0.00 0.00 0.00 67 1009.1
20240304013658 69 173 1.0 5.0 0.00 0.00 0.00 66 1009.0
20240304012651 69 137 1.0 6.0 0.00 0.00 0.00 66 1008.9
20240304011620 69 126 1.0 6.0 0.00 0.00 0.00 65 1008.8
20240304010631 70 128 1.0 10.0 0.00 0.00 0.00 64 1008.7
20240304005605 70 120 3.0 11.0 0.00 0.00 0.00 63 1008.5
20240304004550 71 122 3.0 11.0 0.00 0.00 0.00 61 1008.6
20240304003612 71 178 3.0 9.0 0.00 0.00 0.00 60 1008.5
20240304002554 72 142 2.0 9.0 0.00 0.00 0.00 57 1008.4
20240304001554 73 146 4.0 14.0 0.00 0.00 0.00 55 1008.4
20240304000554 73 166 5.0 14.0 0.00 0.00 0.00 55 1008.4
20240303235537 74 154 6.0 18.0 0.00 0.00 0.00 55 1008.4
20240303234508 74 186 6.0 18.0 0.00 0.00 0.00 56 1008.4
20240303233509 75 141 5.0 12.0 0.00 0.00 0.00 58 1008.3
20240303232533 75 121 5.0 13.0 0.00 0.00 0.00 57 1008.3
20240303231502 76 175 5.0 13.0 0.00 0.00 0.00 55 1008.3
20240303230429 76 135 5.0 14.0 0.00 0.00 0.00 53 1008.3
20240303225406 75 160 5.0 14.0 0.00 0.00 0.00 51 1008.3
20240303224354 76 207 5.0 17.0 0.00 0.00 0.00 51 1008.4
20240303223319 76 176 7.0 17.0 0.00 0.00 0.00 50 1008.3
20240303222310 75 153 6.0 14.0 0.00 0.00 0.00 50 1008.2
20240303221310 75 187 7.0 16.0 0.00 0.00 0.00 51 1008.0
20240303220329 76 96 6.0 17.0 0.00 0.00 0.00 50 1008.2
20240303215255 77 115 7.0 17.0 0.00 0.00 0.00 49 1008.2
20240303214318 77 165 6.0 18.0 0.00 0.00 0.00 48 1008.2
20240303213300 76 163 7.0 18.0 0.00 0.00 0.00 50 1008.3
20240303212244 77 118 7.0 17.0 0.00 0.00 0.00 49 1008.3
20240303201613 75 147 7.0 15.0 0.00 0.00 0.00 52 1009.0
20240303200555 76 205 6.0 15.0 0.00 0.00 0.00 51 1009.1
20240303195552 77 163 6.0 14.0 0.00 0.00 0.00 50 1009.2
20240303194524 76 214 6.0 13.0 0.00 0.00 0.00 53 1009.3
20240303193538 75 138 7.0 14.0 0.00 0.00 0.00 51 1009.5
20240303192506 76 205 7.0 19.0 0.00 0.00 0.00 51 1009.5
20240303191444 75 146 8.0 19.0 0.00 0.00 0.00 50 1009.6
20240303190451 76 170 6.0 18.0 0.00 0.00 0.00 52 1009.6
20240303185510 75 167 8.0 18.0 0.00 0.00 0.00 53 1009.8
20240303184515 75 165 8.0 17.0 0.00 0.00 0.00 52 1009.9
20240303183441 75 143 8.0 17.0 0.00 0.00 0.00 53 1010.1
20240303182413 75 182 7.0 15.0 0.00 0.00 0.00 53 1010.3
20240303181342 74 177 8.0 17.0 0.00 0.00 0.00 54 1010.4
20240303180308 73 190 6.0 21.0 0.00 0.00 0.00 55 1010.6
20240303175318 73 158 8.0 21.0 0.00 0.00 0.00 56 1010.8
20240303174340 72 159 7.0 19.0 0.00 0.00 0.00 58 1011.2
20240303173336 72 148 8.0 17.0 0.00 0.00 0.00 58 1011.3
20240303172313 72 209 5.0 14.0 0.00 0.00 0.00 56 1011.6
20240303171301 71 155 7.0 16.0 0.00 0.00 0.00 58 1011.5
20240303170314 71 141 7.0 16.0 0.00 0.00 0.00 58 1011.7
20240303165243 70 190 8.0 16.0 0.00 0.00 0.00 59 1011.8
20240303164228 69 226 7.0 16.0 0.00 0.00 0.00 61 1011.7
20240303163236 68 215 9.0 16.0 0.00 0.00 0.00 61 1011.8
20240303162222 68 184 7.0 13.0 0.00 0.00 0.00 62 1011.9
20240303161213 68 101 5.0 18.0 0.00 0.00 0.00 62 1012.1
20240303160157 66 123 7.0 18.0 0.00 0.00 0.00 63 1012.0
20240303155139 66 159 7.0 15.0 0.00 0.00 0.00 63 1012.1
20240303154155 66 148 5.0 14.0 0.00 0.00 0.00 64 1012.1
20240303153141 65 206 4.0 14.0 0.00 0.00 0.00 66 1012.3
20240303152202 65 201 2.0 12.0 0.00 0.00 0.00 67 1012.3
20240303151155 64 153 4.0 11.0 0.00 0.00 0.00 68 1012.3
20240303150210 64 134 5.0 12.0 0.00 0.00 0.00 68 1012.0
20240303145216 64 171 4.0 12.0 0.00 0.00 0.00 68 1012.1
20240303144159 64 176 4.0 9.0 0.00 0.00 0.00 69 1012.1
20240303143153 64 185 3.0 8.0 0.00 0.00 0.00 69 1012.1
20240303142214 63 141 3.0 8.0 0.00 0.00 0.00 70 1012.0
20240303141201 63 170 2.0 8.0 0.00 0.00 0.00 71 1011.9
20240303140220 63 100 3.0 7.0 0.00 0.00 0.00 71 1011.8
20240303135155 63 121 3.0 10.0 0.00 0.00 0.00 70 1011.7
20240303134137 63 139 2.0 10.0 0.00 0.00 0.00 70 1011.7
20240303133147 63 153 2.0 7.0 0.00 0.00 0.00 70 1011.8
20240303132118 63 140 2.0 7.0 0.00 0.00 0.00 69 1011.8
20240303131047 63 167 2.0 8.0 0.00 0.00 0.00 69 1011.7
20240303130034 63 152 3.0 8.0 0.00 0.00 0.00 68 1011.7
20240303125036 63 106 2.0 8.0 0.00 0.00 0.00 68 1011.6
20240303124034 63 171 3.0 8.0 0.00 0.00 0.00 67 1011.5
20240303123018 63 169 3.0 8.0 0.00 0.00 0.00 66 1011.6
20240303122015 63 159 2.0 9.0 0.00 0.00 0.00 66 1011.5